TimeEST,TemperatureF,Dew PointF,Humidity,Sea Level PressureIn,VisibilityMPH,Wind Direction,Wind SpeedMPH,Gust SpeedMPH,PrecipitationIn,Events,Conditions,WindDirDegrees,DateUTC
12:53 AM,69.1,55.0,61,30.01,10.0,NW,10.4,21.9,N/A,,Mostly Cloudy,310,2012-11-04 04:53:00
1:53 AM,66.0,53.1,63,30.00,10.0,WNW,9.2,-,N/A,,Clear,300,2012-11-04 05:53:00
1:53 AM,64.9,53.1,65,29.97,10.0,Calm,Calm,-,0.00,Rain,Light Rain,0,2012-11-04 06:53:00
2:53 AM,59.0,52.0,78,29.97,10.0,SSW,3.5,-,0.00,,Clear,200,2012-11-04 07:53:00
3:53 AM,55.0,52.0,89,29.97,10.0,Calm,Calm,-,N/A,,Clear,0,2012-11-04 08:53:00
4:53 AM,54.0,51.1,90,29.98,10.0,Calm,Calm,-,N/A,,Clear,0,2012-11-04 09:53:00
5:53 AM,52.0,51.1,97,29.99,10.0,Calm,Calm,-,N/A,,Clear,0,2012-11-04 10:53:00
6:53 AM,52.0,51.1,97,29.99,10.0,Calm,Calm,-,N/A,,Clear,0,2012-11-04 11:53:00
7:53 AM,53.1,52.0,96,30.00,10.0,Calm,Calm,-,N/A,,Clear,0,2012-11-04 12:53:00
8:31 AM,57.2,55.4,94,30.04,10.0,SW,5.8,-,N/A,,Mostly Cloudy,220,2012-11-04 13:31:00
8:53 AM,59.0,55.0,87,30.02,10.0,SSW,3.5,-,N/A,,Overcast,200,2012-11-04 13:53:00
9:14 AM,59.0,55.4,88,30.04,10.0,SSW,4.6,-,N/A,,Scattered Clouds,200,2012-11-04 14:14:00
9:53 AM,60.1,55.9,86,30.03,10.0,WSW,4.6,-,N/A,,Clear,240,2012-11-04 14:53:00
10:53 AM,63.0,57.0,81,30.03,10.0,West,6.9,-,N/A,,Partly Cloudy,280,2012-11-04 15:53:00
11:53 AM,64.0,55.0,73,30.02,10.0,NW,6.9,-,N/A,,Partly Cloudy,310,2012-11-04 16:53:00
12:53 PM,64.0,48.9,58,30.00,10.0,NW,6.9,-,N/A,,Clear,310,2012-11-04 17:53:00
1:53 PM,68.0,48.0,49,29.99,10.0,NNW,6.9,-,N/A,,Scattered Clouds,330,2012-11-04 18:53:00
2:53 PM,66.9,46.0,47,29.98,10.0,WNW,9.2,20.7,N/A,,Mostly Cloudy,290,2012-11-04 19:53:00
3:53 PM,66.9,46.0,47,29.98,10.0,Variable,4.6,-,N/A,,Partly Cloudy,0,2012-11-04 20:53:00
4:53 PM,64.0,46.0,52,29.99,10.0,NNW,8.1,-,N/A,,Clear,330,2012-11-04 21:53:00
5:53 PM,59.0,45.0,60,30.01,10.0,NW,5.8,-,N/A,,Clear,320,2012-11-04 22:53:00
6:53 PM,57.0,43.0,59,30.03,10.0,NW,9.2,-,N/A,,Clear,320,2012-11-04 23:53:00
7:53 PM,54.0,39.9,59,30.04,10.0,North,5.8,-,N/A,,Clear,350,2012-11-05 00:53:00
8:53 PM,51.1,39.9,66,30.06,10.0,NNW,12.7,-,N/A,,Clear,340,2012-11-05 01:53:00
9:53 PM,48.9,37.9,66,30.07,10.0,North,11.5,-,N/A,,Clear,350,2012-11-05 02:53:00
10:53 PM,46.0,37.9,73,30.08,10.0,North,5.8,-,N/A,,Clear,350,2012-11-05 03:53:00